Location: Kawakawa
(35.3830°S, 174.0670°E)
Time: 10:35:47
(UTC+13:00)

A-11 Canister half - Pass Details

Date: 09 December 2019
Orbit: 1525 x 1684 km, 47.3° (Epoch: 22 January)

Event Time Altitude Azimuth Distance (km) Brightness Sun altitude
Rises 04:04:37 0° 243° (WSW) 4,754 11.4 -19.4°
Reaches altitude 10° 04:08:09 10° 253° (WSW) 3,788 10.8 -19.0°
Maximum altitude 04:16:02 30° 308° (NW) 2,607 9.6 -17.9°
Drops below altitude 10° 04:24:06 10° 4° (N) 3,869 10.7 -16.7°
Sets 04:27:48 0° 14° (NNE) 4,871 11.3 -16.2°
